This is the latest recevied weather packets stored in our database for station/object KO4IDC-13. If no packets are shown the sender has not sent any weather packets the latest 1 day(s).
| Time | Temp. | Humidity | Pressure | Rain* | Wind** | Luminosity | Snow |
|---|---|---|---|---|---|---|---|
| 1777980003 | 18.89° C | 64% | 1010.5 hPa | 0 mm | 0.45 m/s, 41° | 5 W/m² | - |
| 1777979701 | 18.89° C | 65% | 1010.4 hPa | 0 mm | 0.45 m/s, 274° | 3 W/m² | - |
| 1777979398 | 18.89° C | 64% | 1010.3 hPa | 0 mm | 0.45 m/s, 216° | 2 W/m² | - |
| 1777979095 | 18.89° C | 64% | 1010.2 hPa | 0 mm | 0 m/s | 1 W/m² | - |
| 1777978792 | 18.89° C | 64% | 1010.2 hPa | 0 mm | 0.89 m/s, 143° | 1 W/m² | - |
| 1777978488 | 18.89° C | 64% | 1010.1 hPa | 0 mm | 0.45 m/s, 183° | 1 W/m² | - |
| 1777978184 | 18.89° C | 64% | 1010.1 hPa | 0 mm | 0.45 m/s, 188° | 0 W/m² | - |
| 1777977882 | 18.89° C | 63% | 1010 hPa | 0 mm | 1.79 m/s, 148° | 0 W/m² | - |
| 1777977578 | 18.89° C | 63% | 1010 hPa | 0 mm | 1.34 m/s, 180° | 0 W/m² | - |
| 1777977276 | 18.89° C | 64% | 1010 hPa | 0 mm | 0.45 m/s, 177° | 0 W/m² | - |
| 1777976973 | 18.89° C | 63% | 1009.9 hPa | 0 mm | 2.24 m/s, 167° | 0 W/m² | - |
| 1777976670 | 18.89° C | 64% | 1010 hPa | 0 mm | 0.89 m/s, 169° | 0 W/m² | - |
| 1777976367 | 18.89° C | 63% | 1009.9 hPa | 0 mm | 1.34 m/s, 124° | 0 W/m² | - |
| 1777976066 | 18.89° C | 63% | 1010.1 hPa | 0 mm | 1.34 m/s, 77° | 0 W/m² | - |
| 1777975762 | 18.89° C | 63% | 1010.1 hPa | 0 mm | 1.79 m/s, 143° | 0 W/m² | - |
| 1777975459 | 18.89° C | 63% | 1010.1 hPa | 0 mm | 0.89 m/s, 188° | 0 W/m² | - |
| 1777975155 | 18.89° C | 63% | 1010 hPa | 0 mm | 0.89 m/s, 181° | 0 W/m² | - |
| 1777974852 | 18.89° C | 63% | 1010.1 hPa | 0 mm | 1.34 m/s, 141° | 0 W/m² | - |
| 1777974548 | 18.89° C | 63% | 1010.1 hPa | 0 mm | 1.34 m/s, 152° | 0 W/m² | - |
| 1777974246 | 18.89° C | 62% | 1010.1 hPa | 0 mm | 1.79 m/s, 158° | 0 W/m² | - |
| 1777973941 | 18.89° C | 62% | 1010.1 hPa | 0 mm | 1.79 m/s, 148° | 0 W/m² | - |
| 1777973639 | 18.89° C | 62% | 1010.2 hPa | 0 mm | 1.34 m/s, 150° | 0 W/m² | - |
| 1777973336 | 18.89° C | 63% | 1010.4 hPa | 0 mm | 1.34 m/s, 164° | 0 W/m² | - |
| 1777973034 | 18.89° C | 62% | 1010.4 hPa | 0 mm | 1.34 m/s, 188° | 0 W/m² | - |
| 1777972731 | 18.89° C | 62% | 1010.3 hPa | 0 mm | 1.34 m/s, 186° | 0 W/m² | - |
* Rain latest hour (hover to see other rain measurements)
** Current wind speed in m/s (hover to see current wind gust speed)